When you browse on this site, cookies collect data to enhance your experience and personalize the content and advertising you see.
Visit our Privacy Policy to learn more. By continuing to use the site, you agree to this use of cookies and data.

Previsão horária em Dzhilihur

Hoje, 3 Julho, Sexta-feira

Tempo Temperatura Precipitação Vento Pressão Humidade
00:00 +12°C° 0 mm 1 m/s 624 mmHg 87%
01:00 +12°C° 0 mm 1 m/s 624 mmHg 87%
02:00 +12°C° 0 mm 1 m/s 624 mmHg 88%
03:00 +12°C° 0 mm 1 m/s 624 mmHg 89%
04:00 +13°C° 0 mm 1 m/s 624 mmHg 87%
05:00 +14°C° 0 mm 1 m/s 625 mmHg 86%
06:00 +16°C° 0 mm 1 m/s 626 mmHg 84%
07:00 +18°C° 0 mm 1 m/s 626 mmHg 78%
08:00 +18°C° 0 mm 2 m/s 627 mmHg 73%
09:00 +20°C° 0 mm 2 m/s 627 mmHg 65%
10:00 +20°C° 0.1 mm 2 m/s 627 mmHg 65%
11:00 +21°C° 0.1 mm 2 m/s 627 mmHg 65%
12:00 +21°C° 0.1 mm 3 m/s 628 mmHg 65%
13:00 +21°C° 0.6 mm 3 m/s 627 mmHg 67%
14:00 +21°C° 0.6 mm 2 m/s 627 mmHg 68%
15:00 +20°C° 0.6 mm 2 m/s 626 mmHg 70%
16:00 +20°C° 0.4 mm 2 m/s 626 mmHg 72%
17:00 +20°C° 0.4 mm 2 m/s 626 mmHg 73%
18:00 +20°C° 0.4 mm 1 m/s 626 mmHg 75%
19:00 +19°C° 0 mm 1 m/s 626 mmHg 78%
20:00 +16°C° 0 mm 1 m/s 625 mmHg 81%
21:00 +15°C° 0 mm 1 m/s 625 mmHg 84%
22:00 +14°C° 0 mm 1 m/s 625 mmHg 85%
23:00 +14°C° 0 mm 1 m/s 625 mmHg 86%

Amanhã, 4 Julho, Sábado

Tempo Temperatura Precipitação Vento Pressão Humidade
00:00 +13°C° 0 mm 1 m/s 624 mmHg 87%
01:00 +13°C° 0 mm 1 m/s 624 mmHg 87%
02:00 +13°C° 0 mm 1 m/s 624 mmHg 87%
03:00 +12°C° 0 mm 1 m/s 624 mmHg 87%
04:00 +14°C° 0 mm 1 m/s 625 mmHg 85%
05:00 +15°C° 0 mm 1 m/s 625 mmHg 82%
06:00 +16°C° 0 mm 1 m/s 626 mmHg 80%
07:00 +19°C° 0 mm 1 m/s 626 mmHg 74%
08:00 +20°C° 0 mm 1 m/s 627 mmHg 69%
09:00 +21°C° 0 mm 2 m/s 627 mmHg 63%
10:00 +21°C° 0.2 mm 2 m/s 627 mmHg 63%
11:00 +23°C° 0.2 mm 2 m/s 627 mmHg 64%
12:00 +22°C° 0.2 mm 3 m/s 627 mmHg 64%
13:00 +22°C° 0.8 mm 3 m/s 626 mmHg 64%
14:00 +22°C° 0.8 mm 3 m/s 626 mmHg 64%
15:00 +23°C° 0.8 mm 2 m/s 626 mmHg 65%
16:00 +21°C° 0.4 mm 2 m/s 625 mmHg 65%
17:00 +21°C° 0.4 mm 2 m/s 625 mmHg 65%
18:00 +20°C° 0.4 mm 2 m/s 625 mmHg 65%
19:00 +19°C° 0 mm 1 m/s 625 mmHg 69%
20:00 +16°C° 0 mm 1 m/s 624 mmHg 72%
21:00 +14°C° 0 mm 1 m/s 623 mmHg 76%
22:00 +14°C° 0 mm 1 m/s 623 mmHg 76%
23:00 +14°C° 0 mm 1 m/s 623 mmHg 76%

Depois de amanhã, 5 Julho, Domingo

Tempo Temperatura Precipitação Vento Pressão Humidade
00:00 +14°C° 0 mm 1 m/s 623 mmHg 75%
01:00 +14°C° 0 mm 1 m/s 623 mmHg 76%
02:00 +13°C° 0 mm 1 m/s 623 mmHg 76%
03:00 +12°C° 0 mm 0 m/s 622 mmHg 76%
04:00 +13°C° 0 mm 0 m/s 623 mmHg 74%
05:00 +15°C° 0 mm 0 m/s 624 mmHg 71%
06:00 +16°C° 0 mm 0 m/s 624 mmHg 68%
07:00 +19°C° 0 mm 1 m/s 625 mmHg 64%
08:00 +21°C° 0 mm 1 m/s 625 mmHg 61%
09:00 +21°C° 0 mm 2 m/s 625 mmHg 58%
10:00 +21°C° 0.1 mm 2 m/s 625 mmHg 57%
11:00 +23°C° 0.1 mm 2 m/s 625 mmHg 57%
12:00 +22°C° 0.1 mm 3 m/s 625 mmHg 56%
13:00 +23°C° 0.2 mm 2 m/s 625 mmHg 57%
14:00 +23°C° 0.2 mm 2 m/s 624 mmHg 57%
15:00 +21°C° 0.2 mm 2 m/s 624 mmHg 58%
16:00 +21°C° 0 mm 2 m/s 624 mmHg 58%
17:00 +21°C° 0 mm 2 m/s 624 mmHg 59%
18:00 +21°C° 0 mm 2 m/s 624 mmHg 59%
19:00 +20°C° 0 mm 1 m/s 623 mmHg 63%
20:00 +18°C° 0 mm 1 m/s 622 mmHg 66%
21:00 +14°C° 0 mm 1 m/s 622 mmHg 69%
22:00 +14°C° 0 mm 1 m/s 622 mmHg 69%
23:00 +14°C° 0 mm 1 m/s 622 mmHg 70%

6 Julho, Segunda-feira

Tempo Temperatura Precipitação Vento Pressão Humidade
00:00 +14°C° 0 mm 1 m/s 622 mmHg 70%
01:00 +13°C° 0 mm 1 m/s 621 mmHg 69%
02:00 +13°C° 0 mm 1 m/s 621 mmHg 69%
03:00 +13°C° 0 mm 1 m/s 621 mmHg 69%
04:00 +14°C° 0 mm 1 m/s 622 mmHg 66%
05:00 +16°C° 0 mm 1 m/s 623 mmHg 63%
06:00 +18°C° 0 mm 1 m/s 623 mmHg 61%
07:00 +20°C° 0 mm 1 m/s 624 mmHg 56%
08:00 +21°C° 0 mm 1 m/s 624 mmHg 51%
09:00 +23°C° 0 mm 2 m/s 625 mmHg 46%
10:00 +23°C° 0 mm 2 m/s 625 mmHg 46%
11:00 +24°C° 0 mm 2 m/s 625 mmHg 46%
12:00 +25°C° 0 mm 3 m/s 625 mmHg 47%
13:00 +24°C° 0.2 mm 3 m/s 624 mmHg 51%
14:00 +23°C° 0.2 mm 2 m/s 624 mmHg 54%
15:00 +23°C° 0.2 mm 2 m/s 623 mmHg 58%
16:00 +22°C° 0 mm 1 m/s 623 mmHg 58%
17:00 +22°C° 0 mm 1 m/s 623 mmHg 58%
18:00 +20°C° 0 mm 0 m/s 623 mmHg 58%
19:00 +20°C° 0 mm 1 m/s 623 mmHg 62%
20:00 +18°C° 0 mm 1 m/s 622 mmHg 66%
21:00 +15°C° 0 mm 1 m/s 622 mmHg 70%
22:00 +15°C° 0 mm 1 m/s 621 mmHg 70%
23:00 +14°C° 0 mm 1 m/s 621 mmHg 69%

7 Julho, Terça-feira

Tempo Temperatura Precipitação Vento Pressão Humidade
00:00 +14°C° 0 mm 1 m/s 621 mmHg 69%
01:00 +14°C° 0 mm 1 m/s 621 mmHg 69%
02:00 +14°C° 0 mm 1 m/s 621 mmHg 69%
03:00 +13°C° 0 mm 1 m/s 621 mmHg 69%
04:00 +15°C° 0 mm 1 m/s 621 mmHg 67%
05:00 +16°C° 0 mm 1 m/s 622 mmHg 65%
06:00 +19°C° 0 mm 1 m/s 623 mmHg 63%
07:00 +20°C° 0 mm 1 m/s 623 mmHg 57%
08:00 +21°C° 0 mm 2 m/s 624 mmHg 52%
09:00 +23°C° 0 mm 2 m/s 624 mmHg 46%
10:00 +24°C° 0 mm 2 m/s 624 mmHg 45%
11:00 +25°C° 0 mm 2 m/s 624 mmHg 44%
12:00 +25°C° 0 mm 3 m/s 624 mmHg 43%
13:00 +25°C° 0 mm 3 m/s 624 mmHg 43%
14:00 +25°C° 0 mm 2 m/s 624 mmHg 43%
15:00 +25°C° 0 mm 2 m/s 623 mmHg 43%
16:00 +25°C° 0 mm 2 m/s 623 mmHg 46%
17:00 +24°C° 0 mm 2 m/s 623 mmHg 49%
18:00 +24°C° 0 mm 2 m/s 622 mmHg 52%
19:00 +22°C° 0 mm 1 m/s 622 mmHg 54%
20:00 +20°C° 0 mm 1 m/s 622 mmHg 56%
21:00 +18°C° 0 mm 1 m/s 621 mmHg 57%
22:00 +16°C° 0 mm 1 m/s 621 mmHg 59%
23:00 +16°C° 0 mm 1 m/s 621 mmHg 60%

8 Julho, Quarta-feira

Tempo Temperatura Precipitação Vento Pressão Humidade
00:00 +15°C° 0 mm 1 m/s 621 mmHg 61%
01:00 +15°C° 0 mm 1 m/s 621 mmHg 61%
02:00 +15°C° 0 mm 1 m/s 621 mmHg 62%
03:00 +15°C° 0 mm 1 m/s 621 mmHg 62%
04:00 +16°C° 0 mm 1 m/s 621 mmHg 61%
05:00 +18°C° 0 mm 1 m/s 622 mmHg 60%
06:00 +20°C° 0 mm 1 m/s 622 mmHg 59%
07:00 +21°C° 0 mm 1 m/s 623 mmHg 54%
08:00 +23°C° 0 mm 1 m/s 623 mmHg 48%
09:00 +25°C° 0 mm 1 m/s 624 mmHg 43%
10:00 +25°C° 0 mm 2 m/s 624 mmHg 43%
11:00 +26°C° 0 mm 2 m/s 624 mmHg 44%
12:00 +26°C° 0 mm 3 m/s 624 mmHg 44%
13:00 +26°C° 0.2 mm 2 m/s 623 mmHg 47%
14:00 +25°C° 0.2 mm 2 m/s 623 mmHg 50%
15:00 +25°C° 0.2 mm 2 m/s 622 mmHg 53%
16:00 +25°C° 0.1 mm 2 m/s 622 mmHg 54%
17:00 +24°C° 0.1 mm 1 m/s 622 mmHg 55%
18:00 +24°C° 0.1 mm 1 m/s 622 mmHg 56%
19:00 +22°C° 0 mm 1 m/s 621 mmHg 60%
20:00 +20°C° 0 mm 1 m/s 621 mmHg 64%
21:00 +16°C° 0 mm 1 m/s 620 mmHg 68%
22:00 +16°C° 0 mm 1 m/s 620 mmHg 67%
23:00 +16°C° 0 mm 1 m/s 620 mmHg 65%
Mostrar mais